Time,TemperatureF,DewpointF,PressureIn,WindDirection,WindDirectionDegrees,WindSpeedMPH,WindSpeedGustMPH,Humidity,HourlyPrecipIn,Conditions,Clouds,dailyrainin,SoftwareType,DateUTC
2013-07-02 00:01:00,72.2,72.0,30.17,SSW,202,0.0,7.2,99,0.00,,,0.00,Rainwise IP-100,2013-07-02 04:01:00,
2013-07-02 00:06:00,72.1,71.7,30.17,NW,315,5.6,7.5,99,0.00,,,0.00,Rainwise IP-100,2013-07-02 04:06:00,
2013-07-02 00:11:00,72.0,71.7,30.18,NW,315,0.0,9.8,99,0.00,,,0.00,Rainwise IP-100,2013-07-02 04:11:00,
2013-07-02 00:16:00,72.0,71.7,30.18,NNW,337,0.0,5.1,99,0.00,,,0.00,Rainwise IP-100,2013-07-02 04:16:00,
2013-07-02 00:21:00,72.0,71.7,30.18,WSW,247,3.5,7.0,99,0.00,,,0.00,Rainwise IP-100,2013-07-02 04:21:00,
2013-07-02 00:26:00,72.0,71.7,30.18,West,270,2.6,5.8,99,0.00,,,0.00,Rainwise IP-100,2013-07-02 04:26:00,
2013-07-02 00:31:00,72.1,71.7,30.18,WSW,247,3.0,4.9,99,0.00,,,0.00,Rainwise IP-100,2013-07-02 04:31:00,
2013-07-02 00:36:00,72.1,71.7,30.17,SW,225,2.3,6.1,99,0.00,,,0.00,Rainwise IP-100,2013-07-02 04:36:00,
2013-07-02 00:41:00,72.1,72.0,30.18,WSW,247,1.4,6.8,100,0.00,,,0.00,Rainwise IP-100,2013-07-02 04:41:00,
2013-07-02 00:46:00,72.1,72.0,30.18,WSW,247,1.4,7.7,100,0.00,,,0.00,Rainwise IP-100,2013-07-02 04:46:00,
2013-07-02 00:51:00,72.1,72.0,30.18,WNW,292,1.6,4.9,100,0.00,,,0.00,Rainwise IP-100,2013-07-02 04:51:00,
2013-07-02 00:56:00,72.2,72.3,30.18,WSW,247,0.0,7.0,100,0.00,,,0.00,Rainwise IP-100,2013-07-02 04:56:00,
2013-07-02 01:01:00,72.3,72.3,30.18,SSW,202,2.3,6.5,100,0.00,,,0.00,Rainwise IP-100,2013-07-02 05:01:00,
2013-07-02 01:06:00,72.5,72.7,30.18,WNW,292,1.4,5.8,100,0.00,,,0.00,Rainwise IP-100,2013-07-02 05:06:00,
2013-07-02 01:11:00,72.5,72.7,30.18,WSW,247,0.0,6.1,100,0.00,,,0.00,Rainwise IP-100,2013-07-02 05:11:00,
2013-07-02 01:16:00,72.5,72.7,30.18,SSW,202,3.3,5.8,100,0.00,,,0.00,Rainwise IP-100,2013-07-02 05:16:00,
2013-07-02 01:21:00,72.5,72.7,30.18,WSW,247,2.3,4.0,100,0.00,,,0.00,Rainwise IP-100,2013-07-02 05:21:00,
2013-07-02 01:26:00,72.5,72.7,30.18,SSW,202,4.2,4.4,100,0.00,,,0.00,Rainwise IP-100,2013-07-02 05:26:00,
2013-07-02 01:31:00,72.6,72.7,30.18,NW,315,0.0,6.1,100,0.00,,,0.00,Rainwise IP-100,2013-07-02 05:31:00,
2013-07-02 01:36:00,72.7,72.7,30.18,WSW,247,0.0,7.5,100,0.00,,,0.00,Rainwise IP-100,2013-07-02 05:36:00,
2013-07-02 01:41:00,72.8,72.7,30.18,WSW,247,0.0,6.1,100,0.00,,,0.00,Rainwise IP-100,2013-07-02 05:41:00,
2013-07-02 01:46:00,72.8,72.7,30.18,WSW,247,4.2,5.8,100,0.00,,,0.00,Rainwise IP-100,2013-07-02 05:46:00,
2013-07-02 01:51:00,72.9,73.0,30.18,WSW,247,4.7,7.2,100,0.00,,,0.00,Rainwise IP-100,2013-07-02 05:51:00,
2013-07-02 01:56:00,73.1,73.0,30.18,SSE,157,0.0,7.9,100,0.00,,,0.00,Rainwise IP-100,2013-07-02 05:56:00,
2013-07-02 02:01:00,73.3,73.3,30.18,SSW,202,1.6,5.1,100,0.00,,,0.00,Rainwise IP-100,2013-07-02 06:01:00,
2013-07-02 02:06:00,73.4,73.3,30.18,SSE,157,0.0,7.7,100,0.00,,,0.00,Rainwise IP-100,2013-07-02 06:06:00,
2013-07-02 02:11:00,73.4,73.0,30.18,West,270,0.0,5.8,99,0.00,,,0.00,Rainwise IP-100,2013-07-02 06:11:00,
2013-07-02 02:16:00,73.4,73.0,30.18,SSW,202,2.6,7.9,99,0.00,,,0.00,Rainwise IP-100,2013-07-02 06:16:00,
2013-07-02 02:21:00,73.4,73.0,30.18,SW,225,2.8,5.8,99,0.00,,,0.00,Rainwise IP-100,2013-07-02 06:21:00,
2013-07-02 02:26:00,73.4,73.0,30.18,WSW,247,1.6,5.6,99,0.00,,,0.00,Rainwise IP-100,2013-07-02 06:26:00,
2013-07-02 02:30:00,73.4,73.0,30.18,SSW,202,0.0,7.9,99,0.00,,,0.00,Rainwise IP-100,2013-07-02 06:30:00,
2013-07-02 02:35:00,73.5,73.3,30.18,South,180,0.0,5.6,99,0.00,,,0.00,Rainwise IP-100,2013-07-02 06:35:00,
2013-07-02 02:40:00,73.5,73.3,30.18,ESE,112,5.4,7.2,99,0.00,,,0.00,Rainwise IP-100,2013-07-02 06:40:00,
2013-07-02 02:45:00,73.6,73.7,30.18,SE,135,5.4,8.2,100,0.00,,,0.00,Rainwise IP-100,2013-07-02 06:45:00,
2013-07-02 02:50:00,73.6,73.7,30.18,SSE,157,1.9,7.2,100,0.00,,,0.00,Rainwise IP-100,2013-07-02 06:50:00,
2013-07-02 02:55:00,73.5,73.7,30.18,WSW,247,2.6,13.3,100,0.00,,,0.00,Rainwise IP-100,2013-07-02 06:55:00,
2013-07-02 03:00:00,73.6,73.7,30.17,SSW,202,4.0,10.5,100,0.00,,,0.00,Rainwise IP-100,2013-07-02 07:00:00,
2013-07-02 03:05:00,73.6,73.7,30.17,WNW,292,3.7,8.4,100,0.00,,,0.00,Rainwise IP-100,2013-07-02 07:05:00,
2013-07-02 03:10:00,73.6,73.7,30.18,SSW,202,3.5,14.0,100,0.00,,,0.00,Rainwise IP-100,2013-07-02 07:10:00,
2013-07-02 03:15:00,73.6,73.7,30.18,NNW,337,0.0,11.2,100,0.00,,,0.00,Rainwise IP-100,2013-07-02 07:15:00,
2013-07-02 03:20:00,73.6,73.7,30.18,WSW,247,2.6,6.5,100,0.00,,,0.00,Rainwise IP-100,2013-07-02 07:20:00,
2013-07-02 03:25:00,73.7,73.7,30.18,WSW,247,1.9,10.3,100,0.00,,,0.00,Rainwise IP-100,2013-07-02 07:25:00,
2013-07-02 03:30:00,73.7,73.7,30.18,SSE,157,3.7,8.9,100,0.00,,,0.00,Rainwise IP-100,2013-07-02 07:30:00,
2013-07-02 03:35:00,73.8,73.7,30.18,ESE,112,4.2,11.2,100,0.00,,,0.00,Rainwise IP-100,2013-07-02 07:35:00,
2013-07-02 03:40:00,73.9,74.0,30.18,West,270,1.9,5.8,100,0.00,,,0.00,Rainwise IP-100,2013-07-02 07:40:00,
2013-07-02 03:45:00,73.9,74.0,30.18,WSW,247,3.7,5.6,100,0.00,,,0.00,Rainwise IP-100,2013-07-02 07:45:00,
2013-07-02 03:50:00,73.9,74.0,30.18,SSW,202,6.8,6.8,100,0.00,,,0.00,Rainwise IP-100,2013-07-02 07:50:00,
2013-07-02 03:55:00,74.0,74.0,30.18,WNW,292,2.6,13.1,100,0.00,,,0.00,Rainwise IP-100,2013-07-02 07:55:00,
2013-07-02 04:00:00,74.0,74.0,30.18,WNW,292,1.9,7.5,100,0.00,,,0.00,Rainwise IP-100,2013-07-02 08:00:00,
2013-07-02 04:05:00,74.0,74.0,30.19,SSW,202,2.3,4.9,100,0.00,,,0.00,Rainwise IP-100,2013-07-02 08:05:00,
2013-07-02 04:10:00,73.9,74.0,30.18,South,180,2.1,8.2,100,0.00,,,0.00,Rainwise IP-100,2013-07-02 08:10:00,
2013-07-02 04:15:00,73.9,74.0,30.18,WSW,247,4.2,9.1,100,0.00,,,0.00,Rainwise IP-100,2013-07-02 08:15:00,
2013-07-02 04:20:00,73.9,74.0,30.19,SE,135,3.7,10.3,100,0.00,,,0.00,Rainwise IP-100,2013-07-02 08:20:00,
2013-07-02 04:25:00,73.9,74.0,30.19,WNW,292,0.0,7.5,100,0.00,,,0.00,Rainwise IP-100,2013-07-02 08:25:00,
2013-07-02 04:30:00,73.8,73.7,30.18,WSW,247,2.6,7.9,100,0.00,,,0.00,Rainwise IP-100,2013-07-02 08:30:00,
2013-07-02 04:35:00,73.8,73.7,30.18,SSW,202,5.4,10.7,100,0.00,,,0.00,Rainwise IP-100,2013-07-02 08:35:00,
2013-07-02 04:40:00,73.7,73.7,30.19,SSW,202,0.0,8.9,100,0.00,,,0.00,Rainwise IP-100,2013-07-02 08:40:00,
2013-07-02 04:45:00,73.7,73.7,30.19,WNW,292,3.5,8.9,100,0.00,,,0.00,Rainwise IP-100,2013-07-02 08:45:00,
2013-07-02 04:50:00,73.7,73.7,30.20,SSE,157,1.2,8.4,100,0.00,,,0.00,Rainwise IP-100,2013-07-02 08:50:00,
2013-07-02 04:55:00,73.8,73.7,30.19,SSW,202,5.4,9.1,100,0.00,,,0.00,Rainwise IP-100,2013-07-02 08:55:00,
2013-07-02 05:00:00,74.0,74.0,30.19,SSW,202,3.7,8.4,100,0.00,,,0.00,Rainwise IP-100,2013-07-02 09:00:00,
2013-07-02 05:05:00,74.2,74.3,30.20,West,270,2.6,8.9,100,0.00,,,0.00,Rainwise IP-100,2013-07-02 09:05:00,
2013-07-02 05:10:00,74.3,74.3,30.19,SSE,157,1.9,11.0,100,0.00,,,0.00,Rainwise IP-100,2013-07-02 09:10:00,
2013-07-02 05:15:00,74.3,74.3,30.20,SSW,202,5.1,9.1,100,0.00,,,0.00,Rainwise IP-100,2013-07-02 09:15:00,
2013-07-02 05:20:00,74.3,74.3,30.20,WNW,292,4.9,9.8,100,0.00,,,0.00,Rainwise IP-100,2013-07-02 09:20:00,
2013-07-02 05:25:00,74.3,74.3,30.20,WSW,247,0.0,11.7,100,0.00,,,0.00,Rainwise IP-100,2013-07-02 09:25:00,
2013-07-02 05:30:00,74.2,74.3,30.20,WSW,247,2.1,10.7,100,0.00,,,0.00,Rainwise IP-100,2013-07-02 09:30:00,
2013-07-02 05:35:00,74.2,74.3,30.20,SSW,202,6.8,6.8,100,0.00,,,0.00,Rainwise IP-100,2013-07-02 09:35:00,
2013-07-02 05:40:00,74.1,74.0,30.20,SSW,202,2.8,11.0,100,0.00,,,0.00,Rainwise IP-100,2013-07-02 09:40:00,
2013-07-02 05:45:00,74.0,74.0,30.21,SSE,157,1.4,7.0,100,0.00,,,0.00,Rainwise IP-100,2013-07-02 09:45:00,
2013-07-02 05:50:00,74.0,74.0,30.21,WNW,292,4.9,10.3,100,0.00,,,0.00,Rainwise IP-100,2013-07-02 09:50:00,
2013-07-02 05:55:00,74.1,74.0,30.21,SSW,202,2.1,10.3,100,0.00,,,0.00,Rainwise IP-100,2013-07-02 09:55:00,
2013-07-02 06:00:00,74.2,74.3,30.21,SSW,202,0.0,6.8,100,0.00,,,0.00,Rainwise IP-100,2013-07-02 10:00:00,
2013-07-02 06:05:00,74.2,74.3,30.21,SSE,157,5.1,7.9,100,0.00,,,0.00,Rainwise IP-100,2013-07-02 10:05:00,
2013-07-02 06:10:00,74.2,74.3,30.21,SSW,202,2.6,11.0,100,0.00,,,0.00,Rainwise IP-100,2013-07-02 10:10:00,
2013-07-02 06:15:00,74.3,74.3,30.22,West,270,1.4,8.2,100,0.00,,,0.00,Rainwise IP-100,2013-07-02 10:15:00,
2013-07-02 06:20:00,74.3,74.3,30.22,West,270,1.4,10.0,100,0.00,,,0.00,Rainwise IP-100,2013-07-02 10:20:00,
2013-07-02 06:25:00,74.3,74.3,30.22,SW,225,7.7,7.7,100,0.00,,,0.00,Rainwise IP-100,2013-07-02 10:25:00,
2013-07-02 06:30:00,74.3,74.3,30.22,WNW,292,1.6,9.8,100,0.00,,,0.00,Rainwise IP-100,2013-07-02 10:30:00,
2013-07-02 06:35:00,74.4,74.3,30.22,SSW,202,3.3,8.9,100,0.00,,,0.00,Rainwise IP-100,2013-07-02 10:35:00,
2013-07-02 06:40:00,74.4,74.3,30.22,SSW,202,2.8,10.0,100,0.00,,,0.00,Rainwise IP-100,2013-07-02 10:40:00,
2013-07-02 06:45:00,74.4,74.3,30.22,NW,315,5.4,7.2,100,0.00,,,0.00,Rainwise IP-100,2013-07-02 10:45:00,
2013-07-02 06:50:00,74.4,74.3,30.22,WSW,247,1.2,7.9,100,0.00,,,0.00,Rainwise IP-100,2013-07-02 10:50:00,
2013-07-02 06:55:00,74.6,74.7,30.23,WNW,292,4.2,7.0,100,0.00,,,0.00,Rainwise IP-100,2013-07-02 10:55:00,
2013-07-02 07:00:00,74.8,74.7,30.23,West,270,6.3,12.6,100,0.00,,,0.00,Rainwise IP-100,2013-07-02 11:00:00,
2013-07-02 07:06:00,75.0,75.0,30.23,WSW,247,5.8,13.8,100,0.12,,,0.03,Rainwise IP-100,2013-07-02 11:06:00,
2013-07-02 07:11:00,74.9,75.0,30.23,SW,225,0.0,8.2,100,0.24,,,0.04,Rainwise IP-100,2013-07-02 11:11:00,
2013-07-02 07:16:00,74.6,74.7,30.23,WSW,247,5.8,7.9,100,0.18,,,0.05,Rainwise IP-100,2013-07-02 11:16:00,
2013-07-02 07:21:00,74.4,74.3,30.22,WNW,292,4.0,9.6,100,0.06,,,0.05,Rainwise IP-100,2013-07-02 11:21:00,
2013-07-02 07:26:00,74.3,74.3,30.22,NW,315,3.5,6.3,100,0.00,,,0.05,Rainwise IP-100,2013-07-02 11:26:00,
2013-07-02 07:31:00,74.3,74.3,30.23,SSW,202,4.7,8.4,100,0.00,,,0.05,Rainwise IP-100,2013-07-02 11:31:00,
2013-07-02 07:36:00,74.4,74.3,30.22,WSW,247,3.0,7.0,100,0.00,,,0.05,Rainwise IP-100,2013-07-02 11:36:00,
2013-07-02 07:41:00,74.6,74.7,30.23,SW,225,2.6,3.7,100,0.00,,,0.05,Rainwise IP-100,2013-07-02 11:41:00,
2013-07-02 07:46:00,74.5,74.7,30.23,SSE,157,1.4,7.2,100,0.00,,,0.05,Rainwise IP-100,2013-07-02 11:46:00,
2013-07-02 07:51:00,74.4,74.3,30.23,SW,225,0.0,7.0,100,0.00,,,0.05,Rainwise IP-100,2013-07-02 11:51:00,
2013-07-02 07:56:00,74.4,74.3,30.23,West,270,1.4,8.2,100,0.00,,,0.05,Rainwise IP-100,2013-07-02 11:56:00,
2013-07-02 08:01:00,74.3,74.3,30.23,SSE,157,0.0,5.4,100,0.00,,,0.05,Rainwise IP-100,2013-07-02 12:01:00,
2013-07-02 08:06:00,74.3,74.3,30.23,SSE,157,2.3,7.0,100,0.00,,,0.05,Rainwise IP-100,2013-07-02 12:06:00,
2013-07-02 08:11:00,74.4,74.3,30.22,WNW,292,2.8,7.7,100,0.00,,,0.05,Rainwise IP-100,2013-07-02 12:11:00,
2013-07-02 08:16:00,74.4,74.3,30.23,East,90,1.6,7.0,100,0.00,,,0.05,Rainwise IP-100,2013-07-02 12:16:00,
2013-07-02 08:21:00,74.5,74.7,30.23,WSW,247,3.5,7.7,100,0.00,,,0.05,Rainwise IP-100,2013-07-02 12:21:00,
2013-07-02 08:26:00,74.6,74.7,30.23,WSW,247,1.9,4.9,100,0.00,,,0.05,Rainwise IP-100,2013-07-02 12:26:00,
2013-07-02 08:31:00,74.7,74.7,30.23,SSW,202,4.2,8.2,100,0.00,,,0.05,Rainwise IP-100,2013-07-02 12:31:00,
2013-07-02 08:36:00,74.8,74.7,30.23,SSW,202,5.4,5.4,100,0.00,,,0.05,Rainwise IP-100,2013-07-02 12:36:00,
2013-07-02 08:41:00,74.8,74.7,30.23,West,270,4.0,8.9,100,0.00,,,0.05,Rainwise IP-100,2013-07-02 12:41:00,
2013-07-02 08:46:00,74.8,74.7,30.23,SSW,202,6.8,7.7,100,0.00,,,0.05,Rainwise IP-100,2013-07-02 12:46:00,
2013-07-02 08:51:00,74.7,74.7,30.23,SSE,157,0.0,8.2,100,0.00,,,0.05,Rainwise IP-100,2013-07-02 12:51:00,
2013-07-02 08:56:00,74.7,74.7,30.23,SSE,157,5.1,8.6,100,0.00,,,0.05,Rainwise IP-100,2013-07-02 12:56:00,
2013-07-02 09:01:00,74.8,74.7,30.23,SSW,202,1.9,8.9,100,0.00,,,0.05,Rainwise IP-100,2013-07-02 13:01:00,
2013-07-02 09:06:00,74.9,75.0,30.23,WSW,247,3.3,9.1,100,0.00,,,0.05,Rainwise IP-100,2013-07-02 13:06:00,
2013-07-02 09:11:00,75.0,75.0,30.22,WSW,247,4.9,7.7,100,0.00,,,0.05,Rainwise IP-100,2013-07-02 13:11:00,
2013-07-02 09:16:00,75.1,75.0,30.23,SSE,157,1.4,10.3,100,0.00,,,0.05,Rainwise IP-100,2013-07-02 13:16:00,
2013-07-02 09:21:00,75.1,75.0,30.23,WNW,292,2.8,7.2,100,0.00,,,0.05,Rainwise IP-100,2013-07-02 13:21:00,
2013-07-02 09:26:00,75.2,75.0,30.23,ENE,67,1.6,5.4,100,0.00,,,0.05,Rainwise IP-100,2013-07-02 13:26:00,
2013-07-02 09:31:00,75.3,75.5,30.22,SSW,202,5.4,6.8,100,0.00,,,0.05,Rainwise IP-100,2013-07-02 13:31:00,
2013-07-02 09:36:00,75.4,75.5,30.23,SSW,202,2.8,8.6,100,0.00,,,0.05,Rainwise IP-100,2013-07-02 13:36:00,
2013-07-02 09:41:00,75.7,75.5,30.23,West,270,3.7,10.0,100,0.00,,,0.05,Rainwise IP-100,2013-07-02 13:41:00,
2013-07-02 09:46:00,76.2,76.3,30.23,SSW,202,0.0,9.1,100,0.00,,,0.05,Rainwise IP-100,2013-07-02 13:46:00,
2013-07-02 09:51:00,76.6,76.3,30.22,South,180,4.0,11.2,99,0.06,,,0.06,Rainwise IP-100,2013-07-02 13:51:00,
2013-07-02 09:56:00,77.3,77.0,30.23,WNW,292,0.0,10.5,99,0.06,,,0.06,Rainwise IP-100,2013-07-02 13:56:00,
2013-07-02 10:01:00,78.1,77.3,30.23,WSW,247,2.8,11.7,98,0.00,,,0.06,Rainwise IP-100,2013-07-02 14:01:00,
2013-07-02 10:06:00,78.6,77.7,30.23,SSW,202,8.2,12.6,97,0.00,,,0.06,Rainwise IP-100,2013-07-02 14:06:00,
2013-07-02 10:11:00,78.8,77.3,30.23,SSW,202,4.7,11.9,96,0.00,,,0.06,Rainwise IP-100,2013-07-02 14:11:00,
2013-07-02 10:16:00,78.9,77.3,30.23,SSW,202,3.5,11.4,95,0.00,,,0.06,Rainwise IP-100,2013-07-02 14:16:00,
2013-07-02 10:21:00,78.9,77.0,30.23,NNE,22,2.6,11.2,94,0.00,,,0.06,Rainwise IP-100,2013-07-02 14:21:00,
2013-07-02 10:26:00,79.2,77.3,30.23,SSE,157,1.2,13.1,94,0.00,,,0.06,Rainwise IP-100,2013-07-02 14:26:00,
2013-07-02 10:31:00,79.8,77.3,30.23,East,90,3.7,12.8,93,0.00,,,0.06,Rainwise IP-100,2013-07-02 14:31:00,
2013-07-02 10:36:00,80.4,78.0,30.22,SE,135,2.8,10.5,92,0.00,,,0.06,Rainwise IP-100,2013-07-02 14:36:00,
2013-07-02 10:41:00,80.6,77.7,30.23,SSE,157,3.7,11.2,91,0.00,,,0.06,Rainwise IP-100,2013-07-02 14:41:00,
2013-07-02 10:46:00,80.3,77.3,30.24,WNW,292,3.0,11.9,91,0.00,,,0.06,Rainwise IP-100,2013-07-02 14:46:00,
2013-07-02 10:51:00,79.8,76.8,30.23,WSW,247,4.4,8.2,91,0.00,,,0.06,Rainwise IP-100,2013-07-02 14:51:00,
2013-07-02 10:56:00,79.8,76.8,30.23,SSE,157,1.2,9.1,91,0.00,,,0.06,Rainwise IP-100,2013-07-02 14:56:00,
2013-07-02 11:01:00,80.2,77.3,30.23,South,180,4.0,7.0,91,0.00,,,0.06,Rainwise IP-100,2013-07-02 15:01:00,
2013-07-02 11:06:00,80.1,76.8,30.23,WSW,247,3.0,12.8,90,0.00,,,0.06,Rainwise IP-100,2013-07-02 15:06:00,
2013-07-02 11:11:00,79.9,76.8,30.23,SSW,202,1.4,9.1,90,0.00,,,0.06,Rainwise IP-100,2013-07-02 15:11:00,
2013-07-02 11:16:00,80.4,77.3,30.23,WNW,292,0.0,6.3,90,0.00,,,0.06,Rainwise IP-100,2013-07-02 15:16:00,
2013-07-02 11:21:00,80.6,77.3,30.24,WSW,247,2.3,11.4,90,0.00,,,0.06,Rainwise IP-100,2013-07-02 15:21:00,
2013-07-02 11:26:00,80.2,77.0,30.23,SSE,157,2.3,10.0,90,0.00,,,0.06,Rainwise IP-100,2013-07-02 15:26:00,
2013-07-02 11:31:00,79.8,76.5,30.23,WSW,247,7.2,8.9,90,0.00,,,0.06,Rainwise IP-100,2013-07-02 15:31:00,
2013-07-02 11:36:00,79.6,76.5,30.23,SSW,202,2.3,7.2,90,0.00,,,0.06,Rainwise IP-100,2013-07-02 15:36:00,
2013-07-02 11:41:00,79.6,76.8,30.23,WSW,247,3.0,7.5,91,0.00,,,0.06,Rainwise IP-100,2013-07-02 15:41:00,
2013-07-02 11:46:00,79.5,76.8,30.23,WNW,292,1.2,7.9,91,0.00,,,0.06,Rainwise IP-100,2013-07-02 15:46:00,
2013-07-02 11:51:00,79.2,76.5,30.23,SW,225,7.0,10.7,91,0.00,,,0.06,Rainwise IP-100,2013-07-02 15:51:00,
2013-07-02 11:56:00,79.1,76.3,30.23,WSW,247,4.0,10.5,91,0.00,,,0.06,Rainwise IP-100,2013-07-02 15:56:00,
2013-07-02 12:01:00,79.4,76.5,30.23,WNW,292,7.5,8.2,91,0.00,,,0.06,Rainwise IP-100,2013-07-02 16:01:00,
2013-07-02 12:06:00,80.0,77.0,30.24,WSW,247,5.1,9.3,91,0.00,,,0.06,Rainwise IP-100,2013-07-02 16:06:00,
2013-07-02 12:11:00,80.1,76.8,30.23,West,270,2.8,8.6,90,0.00,,,0.06,Rainwise IP-100,2013-07-02 16:11:00,
2013-07-02 12:16:00,79.7,76.5,30.23,SSE,157,2.1,8.6,90,0.00,,,0.06,Rainwise IP-100,2013-07-02 16:16:00,
2013-07-02 12:21:00,79.3,76.3,30.24,West,270,2.3,10.0,90,0.00,,,0.06,Rainwise IP-100,2013-07-02 16:21:00,
2013-07-02 12:26:00,79.1,76.3,30.23,WSW,247,5.4,12.4,91,0.00,,,0.06,Rainwise IP-100,2013-07-02 16:26:00,
2013-07-02 12:31:00,79.1,76.3,30.23,WSW,247,6.5,12.4,91,0.00,,,0.06,Rainwise IP-100,2013-07-02 16:31:00,
2013-07-02 12:36:00,79.0,76.3,30.23,WSW,247,9.3,11.2,91,0.00,,,0.06,Rainwise IP-100,2013-07-02 16:36:00,
2013-07-02 12:41:00,78.9,76.3,30.24,WNW,292,4.7,11.7,91,0.00,,,0.06,Rainwise IP-100,2013-07-02 16:41:00,
2013-07-02 12:46:00,79.0,76.3,30.23,WNW,292,2.3,12.4,91,0.00,,,0.06,Rainwise IP-100,2013-07-02 16:46:00,
2013-07-02 12:51:00,79.0,76.3,30.23,SSW,202,4.9,10.0,91,0.00,,,0.06,Rainwise IP-100,2013-07-02 16:51:00,
2013-07-02 12:56:00,78.8,76.0,30.23,WNW,292,5.6,14.2,91,0.00,,,0.06,Rainwise IP-100,2013-07-02 16:56:00,
2013-07-02 13:01:00,78.5,76.0,30.24,WSW,247,2.3,14.5,91,0.00,,,0.06,Rainwise IP-100,2013-07-02 17:01:00,
2013-07-02 13:06:00,78.5,76.0,30.24,WNW,292,4.4,13.1,91,0.00,,,0.06,Rainwise IP-100,2013-07-02 17:06:00,
2013-07-02 13:11:00,78.6,76.3,30.24,WNW,292,18.4,18.4,92,0.00,,,0.06,Rainwise IP-100,2013-07-02 17:11:00,
2013-07-02 13:16:00,78.8,76.0,30.24,NNW,337,6.1,18.4,91,0.00,,,0.06,Rainwise IP-100,2013-07-02 17:16:00,
2013-07-02 13:21:00,78.8,76.0,30.24,WSW,247,8.9,12.8,91,0.00,,,0.06,Rainwise IP-100,2013-07-02 17:21:00,
2013-07-02 13:26:00,78.8,76.0,30.24,SSW,202,1.4,15.2,91,0.00,,,0.06,Rainwise IP-100,2013-07-02 17:26:00,
2013-07-02 13:31:00,78.8,76.0,30.24,WNW,292,6.8,14.2,91,0.00,,,0.06,Rainwise IP-100,2013-07-02 17:31:00,
2013-07-02 13:36:00,78.7,76.0,30.24,WNW,292,3.7,14.5,91,0.00,,,0.06,Rainwise IP-100,2013-07-02 17:36:00,
2013-07-02 13:41:00,78.7,76.0,30.24,WNW,292,2.8,19.1,91,0.00,,,0.06,Rainwise IP-100,2013-07-02 17:41:00,
2013-07-02 13:46:00,78.9,76.3,30.24,WNW,292,5.4,13.8,91,0.00,,,0.06,Rainwise IP-100,2013-07-02 17:46:00,
2013-07-02 13:51:00,79.2,76.3,30.24,SW,225,9.3,13.1,90,0.00,,,0.06,Rainwise IP-100,2013-07-02 17:51:00,
2013-07-02 13:56:00,79.3,76.3,30.24,WSW,247,4.9,15.4,90,0.00,,,0.06,Rainwise IP-100,2013-07-02 17:56:00,
2013-07-02 14:01:00,79.1,76.0,30.23,WSW,247,6.8,12.8,90,0.00,,,0.06,Rainwise IP-100,2013-07-02 18:01:00,
2013-07-02 14:06:00,78.7,75.5,30.24,WSW,247,5.8,11.4,90,0.00,,,0.06,Rainwise IP-100,2013-07-02 18:06:00,
2013-07-02 14:11:00,78.4,75.0,30.23,WSW,247,4.2,11.7,90,0.00,,,0.06,Rainwise IP-100,2013-07-02 18:11:00,
2013-07-02 14:16:00,78.4,75.5,30.23,WNW,292,6.1,7.5,91,0.00,,,0.06,Rainwise IP-100,2013-07-02 18:16:00,
2013-07-02 14:21:00,78.4,75.5,30.24,West,270,3.5,11.4,91,0.00,,,0.06,Rainwise IP-100,2013-07-02 18:21:00,
2013-07-02 14:26:00,78.3,75.5,30.23,WNW,292,3.7,11.0,91,0.00,,,0.06,Rainwise IP-100,2013-07-02 18:26:00,
2013-07-02 14:31:00,78.3,76.0,30.23,WNW,292,5.1,11.0,92,0.00,,,0.06,Rainwise IP-100,2013-07-02 18:31:00,
2013-07-02 14:36:00,78.2,76.0,30.23,West,270,6.8,12.8,92,0.00,,,0.06,Rainwise IP-100,2013-07-02 18:36:00,
2013-07-02 14:41:00,78.1,75.5,30.24,WNW,292,7.0,12.8,92,0.00,,,0.06,Rainwise IP-100,2013-07-02 18:41:00,
2013-07-02 14:46:00,78.3,76.0,30.23,WNW,292,4.0,12.6,92,0.00,,,0.06,Rainwise IP-100,2013-07-02 18:46:00,
2013-07-02 14:51:00,78.5,76.3,30.23,WSW,247,2.1,10.5,92,0.00,,,0.06,Rainwise IP-100,2013-07-02 18:51:00,
2013-07-02 14:56:00,78.5,76.0,30.23,West,270,5.1,10.7,91,0.00,,,0.06,Rainwise IP-100,2013-07-02 18:56:00,
2013-07-02 15:01:00,78.3,75.5,30.23,West,270,6.8,14.2,91,0.00,,,0.06,Rainwise IP-100,2013-07-02 19:01:00,
2013-07-02 15:06:00,77.7,75.0,30.22,WNW,292,7.5,11.2,92,0.00,,,0.06,Rainwise IP-100,2013-07-02 19:06:00,
2013-07-02 15:11:00,77.3,74.7,30.23,NW,315,6.1,10.5,92,0.00,,,0.06,Rainwise IP-100,2013-07-02 19:11:00,
2013-07-02 15:16:00,77.0,74.7,30.23,WSW,247,3.3,9.1,93,0.00,,,0.06,Rainwise IP-100,2013-07-02 19:16:00,
2013-07-02 15:21:00,77.0,74.7,30.22,WNW,292,5.4,10.3,93,0.00,,,0.06,Rainwise IP-100,2013-07-02 19:21:00,
2013-07-02 15:26:00,76.9,75.0,30.23,SSW,202,5.8,9.6,94,0.00,,,0.06,Rainwise IP-100,2013-07-02 19:26:00,
2013-07-02 15:31:00,76.8,74.7,30.22,WSW,247,2.1,9.8,94,0.00,,,0.06,Rainwise IP-100,2013-07-02 19:31:00,
2013-07-02 15:36:00,76.6,74.3,30.22,WNW,292,5.6,8.9,94,0.00,,,0.06,Rainwise IP-100,2013-07-02 19:36:00,
2013-07-02 15:41:00,76.6,74.7,30.22,West,270,6.1,10.7,95,0.00,,,0.06,Rainwise IP-100,2013-07-02 19:41:00,
2013-07-02 15:46:00,76.6,74.7,30.21,WNW,292,2.3,11.7,95,0.00,,,0.06,Rainwise IP-100,2013-07-02 19:46:00,
2013-07-02 15:51:00,76.7,75.0,30.21,WNW,292,5.6,10.0,95,0.00,,,0.06,Rainwise IP-100,2013-07-02 19:51:00,
2013-07-02 15:56:00,76.7,75.0,30.21,WSW,247,1.9,8.2,95,0.00,,,0.06,Rainwise IP-100,2013-07-02 19:56:00,
2013-07-02 16:01:00,76.7,75.5,30.21,West,270,4.7,8.9,96,0.00,,,0.06,Rainwise IP-100,2013-07-02 20:01:00,
2013-07-02 16:06:00,76.6,75.0,30.21,West,270,5.1,11.0,96,0.00,,,0.06,Rainwise IP-100,2013-07-02 20:06:00,
2013-07-02 16:11:00,76.5,75.0,30.21,NNW,337,0.0,8.6,96,0.00,,,0.06,Rainwise IP-100,2013-07-02 20:11:00,
2013-07-02 16:16:00,76.6,75.0,30.21,WSW,247,1.2,9.1,96,0.00,,,0.06,Rainwise IP-100,2013-07-02 20:16:00,
2013-07-02 16:21:00,76.6,75.0,30.21,SSW,202,4.4,7.7,96,0.00,,,0.06,Rainwise IP-100,2013-07-02 20:21:00,
2013-07-02 16:26:00,76.6,74.7,30.21,SSE,157,2.8,8.9,95,0.00,,,0.06,Rainwise IP-100,2013-07-02 20:26:00,
2013-07-02 16:31:00,76.8,75.0,30.22,WSW,247,0.0,8.9,95,0.00,,,0.06,Rainwise IP-100,2013-07-02 20:31:00,
2013-07-02 16:36:00,77.0,75.5,30.21,WSW,247,2.8,3.3,95,0.00,,,0.06,Rainwise IP-100,2013-07-02 20:36:00,
2013-07-02 16:41:00,77.2,76.0,30.21,SSW,202,1.9,6.1,95,0.00,,,0.06,Rainwise IP-100,2013-07-02 20:41:00,
2013-07-02 16:46:00,77.2,75.5,30.21,ESE,112,3.3,8.2,94,0.00,,,0.06,Rainwise IP-100,2013-07-02 20:46:00,
2013-07-02 16:51:00,77.1,75.0,30.21,WNW,292,0.0,6.8,94,0.00,,,0.06,Rainwise IP-100,2013-07-02 20:51:00,
2013-07-02 16:56:00,76.9,75.0,30.21,SE,135,1.6,7.7,94,0.00,,,0.06,Rainwise IP-100,2013-07-02 20:56:00,
2013-07-02 17:01:00,76.6,74.3,30.22,WSW,247,2.1,9.8,94,0.00,,,0.06,Rainwise IP-100,2013-07-02 21:01:00,
2013-07-02 17:06:00,76.3,74.3,30.22,SSW,202,5.1,9.1,94,0.00,,,0.06,Rainwise IP-100,2013-07-02 21:06:00,
2013-07-02 17:11:00,76.1,74.3,30.21,WSW,247,1.9,7.9,95,0.00,,,0.06,Rainwise IP-100,2013-07-02 21:11:00,
2013-07-02 17:16:00,76.0,74.3,30.21,WSW,247,1.2,7.2,95,0.00,,,0.06,Rainwise IP-100,2013-07-02 21:16:00,
2013-07-02 17:21:00,76.0,74.3,30.22,SW,225,2.3,8.6,96,0.00,,,0.06,Rainwise IP-100,2013-07-02 21:21:00,
2013-07-02 17:26:00,76.0,74.3,30.22,WNW,292,0.0,11.2,96,0.00,,,0.06,Rainwise IP-100,2013-07-02 21:26:00,
2013-07-02 17:31:00,76.1,74.3,30.22,SW,225,4.0,6.3,96,0.00,,,0.06,Rainwise IP-100,2013-07-02 21:31:00,
2013-07-02 17:36:00,76.2,74.3,30.22,WNW,292,6.5,7.9,95,0.00,,,0.06,Rainwise IP-100,2013-07-02 21:36:00,
2013-07-02 17:41:00,76.1,74.3,30.22,SSW,202,0.0,7.7,95,0.00,,,0.06,Rainwise IP-100,2013-07-02 21:41:00,
2013-07-02 17:46:00,76.2,74.3,30.23,WNW,292,1.9,7.7,95,0.00,,,0.06,Rainwise IP-100,2013-07-02 21:46:00,
2013-07-02 17:51:00,76.2,74.3,30.23,WSW,247,0.0,4.2,95,0.00,,,0.06,Rainwise IP-100,2013-07-02 21:51:00,
2013-07-02 17:56:00,76.2,74.3,30.23,SW,225,6.1,6.8,95,0.00,,,0.06,Rainwise IP-100,2013-07-02 21:56:00,
2013-07-02 18:01:00,76.1,74.3,30.23,West,270,0.0,7.5,95,0.00,,,0.06,Rainwise IP-100,2013-07-02 22:01:00,
2013-07-02 18:06:00,76.2,74.3,30.23,WSW,247,2.1,7.9,95,0.00,,,0.06,Rainwise IP-100,2013-07-02 22:06:00,
2013-07-02 18:11:00,76.3,74.3,30.23,WSW,247,0.0,4.2,95,0.00,,,0.06,Rainwise IP-100,2013-07-02 22:11:00,
2013-07-02 18:16:00,76.4,74.3,30.23,West,270,0.0,6.5,94,0.00,,,0.06,Rainwise IP-100,2013-07-02 22:16:00,
2013-07-02 18:21:00,76.5,74.3,30.23,WNW,292,0.0,4.4,94,0.00,,,0.06,Rainwise IP-100,2013-07-02 22:21:00,
2013-07-02 18:26:00,76.5,74.3,30.24,WNW,292,2.6,4.2,94,0.00,,,0.06,Rainwise IP-100,2013-07-02 22:26:00,
2013-07-02 18:31:00,76.5,74.3,30.23,SSW,202,1.2,6.8,94,0.00,,,0.06,Rainwise IP-100,2013-07-02 22:31:00,
2013-07-02 18:36:00,76.2,74.3,30.24,SSW,202,2.6,5.4,94,0.00,,,0.06,Rainwise IP-100,2013-07-02 22:36:00,
2013-07-02 18:41:00,75.8,74.0,30.24,WSW,247,3.5,8.6,94,0.00,,,0.06,Rainwise IP-100,2013-07-02 22:41:00,
2013-07-02 18:46:00,75.6,73.7,30.24,WSW,247,1.4,6.1,94,0.00,,,0.06,Rainwise IP-100,2013-07-02 22:46:00,
2013-07-02 18:51:00,75.6,73.7,30.24,WSW,247,0.0,2.3,94,0.00,,,0.06,Rainwise IP-100,2013-07-02 22:51:00,
2013-07-02 18:56:00,75.5,74.0,30.24,West,270,3.0,7.5,95,0.00,,,0.06,Rainwise IP-100,2013-07-02 22:56:00,
2013-07-02 19:01:00,75.4,74.0,30.24,WNW,292,1.2,10.7,95,0.00,,,0.06,Rainwise IP-100,2013-07-02 23:01:00,
2013-07-02 19:06:00,75.3,74.0,30.24,WSW,247,2.3,7.5,95,0.00,,,0.06,Rainwise IP-100,2013-07-02 23:06:00,
2013-07-02 19:11:00,75.2,73.7,30.24,SW,225,0.0,7.7,95,0.00,,,0.06,Rainwise IP-100,2013-07-02 23:11:00,
2013-07-02 19:16:00,75.1,73.7,30.24,West,270,0.0,7.0,96,0.00,,,0.06,Rainwise IP-100,2013-07-02 23:16:00,
2013-07-02 19:21:00,75.0,73.7,30.25,WSW,247,4.2,8.6,96,0.00,,,0.06,Rainwise IP-100,2013-07-02 23:21:00,
2013-07-02 19:26:00,75.0,73.7,30.25,West,270,3.7,6.8,96,0.00,,,0.06,Rainwise IP-100,2013-07-02 23:26:00,
2013-07-02 19:31:00,75.0,73.7,30.25,WSW,247,3.3,9.1,96,0.00,,,0.06,Rainwise IP-100,2013-07-02 23:31:00,
2013-07-02 19:36:00,75.0,73.7,30.25,SSW,202,5.1,6.3,96,0.00,,,0.06,Rainwise IP-100,2013-07-02 23:36:00,
2013-07-02 19:41:00,75.0,73.7,30.26,West,270,1.4,8.4,96,0.00,,,0.06,Rainwise IP-100,2013-07-02 23:41:00,
2013-07-02 19:46:00,75.1,73.7,30.25,WSW,247,0.0,6.8,96,0.00,,,0.06,Rainwise IP-100,2013-07-02 23:46:00,
2013-07-02 19:51:00,75.1,73.7,30.25,WNW,292,1.9,6.3,96,0.00,,,0.06,Rainwise IP-100,2013-07-02 23:51:00,
2013-07-02 19:56:00,75.0,73.7,30.25,WSW,247,1.9,7.7,96,0.00,,,0.06,Rainwise IP-100,2013-07-02 23:56:00,
2013-07-02 20:01:00,74.9,73.7,30.25,WSW,247,2.3,6.3,96,0.00,,,0.06,Rainwise IP-100,2013-07-03 00:01:00,
2013-07-02 20:06:00,74.7,73.7,30.26,WNW,292,0.0,7.7,96,0.00,,,0.06,Rainwise IP-100,2013-07-03 00:06:00,
2013-07-02 20:11:00,74.5,73.7,30.25,WNW,292,2.3,4.0,96,0.00,,,0.06,Rainwise IP-100,2013-07-03 00:11:00,
2013-07-02 20:16:00,74.3,73.3,30.25,WNW,292,0.0,8.2,96,0.00,,,0.06,Rainwise IP-100,2013-07-03 00:16:00,
2013-07-02 20:21:00,74.3,73.3,30.26,SSW,202,0.0,6.5,96,0.00,,,0.06,Rainwise IP-100,2013-07-03 00:21:00,
2013-07-02 20:26:00,74.2,73.3,30.25,WSW,247,1.4,4.2,96,0.00,,,0.06,Rainwise IP-100,2013-07-03 00:26:00,
2013-07-02 20:31:00,74.2,73.3,30.25,SW,225,0.0,4.4,97,0.00,,,0.06,Rainwise IP-100,2013-07-03 00:31:00,
2013-07-02 20:32:00,74.2,73.3,30.25,SSW,202,3.5,4.4,97,0.00,,,0.06,Rainwise IP-100,2013-07-03 00:32:00,
2013-07-02 20:37:00,74.1,73.0,30.25,WNW,292,0.0,5.4,97,0.00,,,0.06,Rainwise IP-100,2013-07-03 00:37:00,
2013-07-02 20:42:00,74.0,73.0,30.25,SSW,202,2.6,6.3,97,0.00,,,0.06,Rainwise IP-100,2013-07-03 00:42:00,
2013-07-02 20:47:00,74.0,73.0,30.26,WSW,247,0.0,6.1,97,0.00,,,0.06,Rainwise IP-100,2013-07-03 00:47:00,
2013-07-02 20:52:00,74.0,73.0,30.26,WSW,247,1.9,5.4,97,0.00,,,0.06,Rainwise IP-100,2013-07-03 00:52:00,
2013-07-02 20:57:00,73.8,72.7,30.26,SSW,202,0.0,8.6,97,0.00,,,0.06,Rainwise IP-100,2013-07-03 00:57:00,
2013-07-02 21:02:00,73.8,72.7,30.26,WSW,247,0.0,4.7,97,0.00,,,0.06,Rainwise IP-100,2013-07-03 01:02:00,
2013-07-02 21:07:00,73.8,72.7,30.26,SW,225,0.0,4.9,97,0.00,,,0.06,Rainwise IP-100,2013-07-03 01:07:00,
2013-07-02 21:12:00,73.8,72.7,30.26,WSW,247,0.0,4.4,97,0.00,,,0.06,Rainwise IP-100,2013-07-03 01:12:00,
2013-07-02 21:17:00,73.7,72.7,30.27,WSW,247,0.0,4.9,97,0.00,,,0.06,Rainwise IP-100,2013-07-03 01:17:00,
2013-07-02 21:22:00,73.7,72.7,30.27,WSW,247,0.0,4.9,97,0.00,,,0.06,Rainwise IP-100,2013-07-03 01:22:00,
2013-07-02 21:27:00,73.7,72.7,30.27,WNW,292,2.8,4.9,97,0.00,,,0.06,Rainwise IP-100,2013-07-03 01:27:00,
2013-07-02 21:32:00,73.7,72.7,30.27,WSW,247,2.6,4.9,97,0.00,,,0.06,Rainwise IP-100,2013-07-03 01:32:00,
2013-07-02 21:37:00,73.6,72.7,30.27,WSW,247,1.2,6.3,97,0.00,,,0.06,Rainwise IP-100,2013-07-03 01:37:00,
2013-07-02 21:42:00,73.6,72.7,30.27,SW,225,0.0,5.1,97,0.00,,,0.06,Rainwise IP-100,2013-07-03 01:42:00,
2013-07-02 21:47:00,73.5,72.7,30.27,WSW,247,1.6,5.4,97,0.00,,,0.06,Rainwise IP-100,2013-07-03 01:47:00,
2013-07-02 21:52:00,73.4,72.7,30.28,WSW,247,2.8,5.8,97,0.00,,,0.06,Rainwise IP-100,2013-07-03 01:52:00,
2013-07-02 21:57:00,73.4,72.7,30.27,SSW,202,2.6,6.1,97,0.00,,,0.06,Rainwise IP-100,2013-07-03 01:57:00,
2013-07-02 22:02:00,73.4,72.7,30.27,WSW,247,0.0,6.1,98,0.00,,,0.06,Rainwise IP-100,2013-07-03 02:02:00,
2013-07-02 22:07:00,73.4,72.7,30.28,WSW,247,0.0,4.0,98,0.00,,,0.06,Rainwise IP-100,2013-07-03 02:07:00,
2013-07-02 22:12:00,73.4,72.7,30.28,SSE,157,0.0,4.9,98,0.00,,,0.06,Rainwise IP-100,2013-07-03 02:12:00,
2013-07-02 22:17:00,73.4,72.7,30.28,WSW,247,2.6,5.4,98,0.00,,,0.06,Rainwise IP-100,2013-07-03 02:17:00,
2013-07-02 22:22:00,73.6,73.0,30.27,NW,315,1.9,6.3,98,0.00,,,0.06,Rainwise IP-100,2013-07-03 02:22:00,
2013-07-02 22:27:00,73.8,73.0,30.27,SW,225,1.4,6.1,98,0.00,,,0.06,Rainwise IP-100,2013-07-03 02:27:00,
2013-07-02 22:31:00,74.0,73.3,30.27,WSW,247,4.4,4.7,98,0.00,,,0.06,Rainwise IP-100,2013-07-03 02:31:00,
2013-07-02 22:36:00,74.1,73.3,30.27,SSW,202,0.0,7.5,98,0.00,,,0.06,Rainwise IP-100,2013-07-03 02:36:00,
2013-07-02 22:41:00,74.3,73.7,30.27,West,270,2.3,11.9,98,0.00,,,0.06,Rainwise IP-100,2013-07-03 02:41:00,
2013-07-02 22:46:00,74.4,73.7,30.27,WNW,292,2.1,10.0,98,0.00,,,0.06,Rainwise IP-100,2013-07-03 02:46:00,
2013-07-02 22:51:00,74.6,74.0,30.27,WSW,247,4.4,11.2,98,0.00,,,0.06,Rainwise IP-100,2013-07-03 02:51:00,
2013-07-02 22:56:00,74.7,73.7,30.26,WNW,292,2.3,10.3,97,0.00,,,0.06,Rainwise IP-100,2013-07-03 02:56:00,
2013-07-02 23:01:00,74.7,73.7,30.26,West,270,5.6,10.7,97,0.00,,,0.06,Rainwise IP-100,2013-07-03 03:01:00,
2013-07-02 23:06:00,74.6,73.7,30.26,WSW,247,3.3,12.8,97,0.00,,,0.06,Rainwise IP-100,2013-07-03 03:06:00,
2013-07-02 23:10:00,74.5,73.7,30.26,WSW,247,4.7,10.5,97,0.00,,,0.06,Rainwise IP-100,2013-07-03 03:10:00,
2013-07-02 23:15:00,74.5,73.7,30.26,SSW,202,9.6,12.4,97,0.00,,,0.06,Rainwise IP-100,2013-07-03 03:15:00,
2013-07-02 23:19:00,74.4,73.3,30.26,WSW,247,4.2,11.7,97,0.00,,,0.06,Rainwise IP-100,2013-07-03 03:19:00,
2013-07-02 23:24:00,74.3,73.3,30.26,WSW,247,3.0,18.9,97,0.00,,,0.06,Rainwise IP-100,2013-07-03 03:24:00,
2013-07-02 23:29:00,74.2,73.3,30.26,WSW,247,3.5,15.2,97,0.00,,,0.06,Rainwise IP-100,2013-07-03 03:29:00,
2013-07-02 23:34:00,74.1,73.0,30.26,SW,225,4.0,8.9,97,0.00,,,0.06,Rainwise IP-100,2013-07-03 03:34:00,
2013-07-02 23:39:00,74.0,73.0,30.26,WSW,247,6.1,11.0,97,0.00,,,0.06,Rainwise IP-100,2013-07-03 03:39:00,
2013-07-02 23:44:00,73.9,73.3,30.26,WSW,247,4.9,9.6,98,0.00,,,0.06,Rainwise IP-100,2013-07-03 03:44:00,
2013-07-02 23:49:00,73.9,73.3,30.26,WNW,292,4.2,9.6,98,0.00,,,0.06,Rainwise IP-100,2013-07-03 03:49:00,
2013-07-02 23:54:00,73.8,73.0,30.25,WNW,292,2.8,10.0,98,0.00,,,0.06,Rainwise IP-100,2013-07-03 03:54:00,
2013-07-02 23:59:00,73.7,73.0,30.25,WNW,292,6.3,10.5,98,0.00,,,0.06,Rainwise IP-100,2013-07-03 03:59:00,